KUIPER-00592

导读

KUIPER-00592(NORAD编号69277)是亚马逊“柯伊伯计划”低轨宽带通信星座的组网卫星,于2025年9月25日通过Atlas V 551火箭在卡纳维拉尔角执行KA-03任务时发射升空,属于该项目第五次发射任务。卫星先被送入450公里初始轨道,经电推进爬升至630公里工作轨道,轨道倾角51.9度,在轨运行状态正常。其配备Ka波段相控阵天线与低反光光学设计,可为全球人口密集区域提供低延迟高速网络服务,是亚马逊布局卫星互联网、对标星链的组成节点,助力该星座达成2026年FCC要求的千星运营目标。

Basic Information
目录编号:
69277
目录名称:
KUIPER-00592
国际标识:
2026-118L
轨道中心:
EARTH
卫星名称:
KUIPER-00592
卫星全名:
KUIPER-00592
卫星状态:
在轨 (已飞行106 天)
发射日期:
2026-05-29 UTC
国别 :
美国 (US)
星等 :
--
This satellite is enrolled in the Space Conjunction Data Service (SCDS) and the current flight risk assessment level is: High Risk
Orbit Information
数据来源 国际轨道数据 AOE轨道数据
星历时间 2026-09-12T02:18:14+0800
9小时前
查看轨道信息
2026-09-07T02:00:00+0800
5天前
查看轨道信息
半长轴 7007.747km 7007.818km
偏心率 0.0000599 0.0000783
轨道倾角 51.904° 51.903°
近地点辐角 100.136° 86.657°
升交点赤经 17.717° 39.882°
平近点角 259.967° 191.607°
近地点 629.19km 629.132km
远地点 630.03km 630.23km
周期 97.303分钟 97.305分钟
每日圈数 14.799097 14.79887
Detailed Information
使用方式:
暂无
2D Orbit Map
3D Orbit Map
Orbit Altitude Analysis Chart
Orbit Inclination Analysis Chart
Orbit Comprehensive Analysis Chart
View Comprehensive Chart
Miss Distance Evolution Trend with All Objects
Collision Probability Evolution Trend with All Objects